^^
Daily Summary for June 07, 2021 Units:  Both    English   Metric
Daily Weekly Monthly Yearly Custom
  High: Low: Average:
Temperature: 79.0 °F /  26.1 °C 51.0 °F /  10.6 °C 65.1 °F /  18.4 °C
Dew Point: 45.0 °F /  7.2 °C 33.0 °F /  0.6 °C 40.6 °F /  4.8 °C
Humidity: 68% 23% 44%
Wind Speed: 21mph /  33.8km/h - 6.9mph /  11.1km/h
Wind Gust: 21mph /  33.8km/h - -
Wind- - SSW
Pressure: 29.9 in /  1012.4 hPa 29.8 in /  1009 hPa -
Precipitation: 0.000 in /  0 mm    
Historical Graphs
 
 
Tabular Data for June 07, 2021
Time Temperature Dew Point Pressure Wind Wind Speed Wind Gust Humidity Rainfall Rate (Hourly) solar
00:04 64.0 °F /  17.8 °C 44.0 °F /  6.7 °C 29.8in /  1009hPa Calm     48% 0.000in /  0mm 0.00 W/m2
00:09 63.0 °F /  17.2 °C 43.0 °F /  6.1 °C 29.8in /  1009hPa SE 2mph /  3.2km/h   48% 0.000in /  0mm 0.00 W/m2
00:14 63.0 °F /  17.2 °C 43.0 °F /  6.1 °C 29.8in /  1009hPa Calm   2mph /  3.2km/h 48% 0.000in /  0mm 0.00 W/m2
00:19 63.0 °F /  17.2 °C 43.0 °F /  6.1 °C 29.8in /  1009hPa Calm     49% 0.000in /  0mm 0.00 W/m2
00:24 63.0 °F /  17.2 °C 43.0 °F /  6.1 °C 29.8in /  1009hPa SE 2mph /  3.2km/h   49% 0.000in /  0mm 0.00 W/m2
00:29 63.0 °F /  17.2 °C 43.0 °F /  6.1 °C 29.8in /  1009hPa SE 2mph /  3.2km/h 2mph /  3.2km/h 49% 0.000in /  0mm 0.00 W/m2
00:34 62.0 °F /  16.7 °C 43.0 °F /  6.1 °C 29.8in /  1009hPa SE 2mph /  3.2km/h 2mph /  3.2km/h 49% 0.000in /  0mm 0.00 W/m2
00:39 62.0 °F /  16.7 °C 43.0 °F /  6.1 °C 29.8in /  1009hPa Calm     49% 0.000in /  0mm 0.00 W/m2
00:44 62.0 °F /  16.7 °C 43.0 °F /  6.1 °C 29.8in /  1009hPa SE 2mph /  3.2km/h   50% 0.000in /  0mm 0.00 W/m2
00:49 62.0 °F /  16.7 °C 44.0 °F /  6.7 °C 29.8in /  1009hPa Calm   2mph /  3.2km/h 51% 0.000in /  0mm 0.00 W/m2
00:54 62.0 °F /  16.7 °C 44.0 °F /  6.7 °C 29.8in /  1009hPa Calm     51% 0.000in /  0mm 0.00 W/m2
00:59 62.0 °F /  16.7 °C 43.0 °F /  6.1 °C 29.8in /  1009hPa Calm     50% 0.000in /  0mm 0.00 W/m2
01:04 62.0 °F /  16.7 °C 43.0 °F /  6.1 °C 29.8in /  1009hPa SE 2mph /  3.2km/h   50% 0.000in /  0mm 0.00 W/m2
01:09 61.0 °F /  16.1 °C 43.0 °F /  6.1 °C 29.8in /  1009hPa Calm   2mph /  3.2km/h 51% 0.000in /  0mm 0.00 W/m2
01:14 61.0 °F /  16.1 °C 43.0 °F /  6.1 °C 29.8in /  1009hPa Calm     52% 0.000in /  0mm 0.00 W/m2
01:19 61.0 °F /  16.1 °C 43.0 °F /  6.1 °C 29.8in /  1009hPa Calm     51% 0.000in /  0mm 0.00 W/m2
01:24 61.0 °F /  16.1 °C 42.0 °F /  5.6 °C 29.8in /  1009hPa SE 2mph /  3.2km/h   50% 0.000in /  0mm 0.00 W/m2
01:29 61.0 °F /  16.1 °C 43.0 °F /  6.1 °C 29.8in /  1009hPa Calm   2mph /  3.2km/h 51% 0.000in /  0mm 0.00 W/m2
01:34 61.0 °F /  16.1 °C 43.0 °F /  6.1 °C 29.8in /  1009hPa SE 2mph /  3.2km/h   52% 0.000in /  0mm 0.00 W/m2
01:39 61.0 °F /  16.1 °C 43.0 °F /  6.1 °C 29.8in /  1009hPa SE 2mph /  3.2km/h 2mph /  3.2km/h 52% 0.000in /  0mm 0.00 W/m2
01:44 60.0 °F /  15.6 °C 43.0 °F /  6.1 °C 29.8in /  1009hPa Calm   2mph /  3.2km/h 53% 0.000in /  0mm 0.00 W/m2
01:49 60.0 °F /  15.6 °C 43.0 °F /  6.1 °C 29.8in /  1009hPa Calm     52% 0.000in /  0mm 0.00 W/m2
01:54 60.0 °F /  15.6 °C 43.0 °F /  6.1 °C 29.8in /  1009hPa Calm     53% 0.000in /  0mm 0.00 W/m2
01:59 60.0 °F /  15.6 °C 43.0 °F /  6.1 °C 29.8in /  1009hPa Calm     53% 0.000in /  0mm 0.00 W/m2
02:04 60.0 °F /  15.6 °C 43.0 °F /  6.1 °C 29.8in /  1009hPa Calm     53% 0.000in /  0mm 0.00 W/m2
02:09 60.0 °F /  15.6 °C 42.0 °F /  5.6 °C 29.8in /  1009hPa Calm     53% 0.000in /  0mm 0.00 W/m2
02:14 59.0 °F /  15 °C 42.0 °F /  5.6 °C 29.8in /  1009hPa Calm     53% 0.000in /  0mm 0.00 W/m2
02:19 59.0 °F /  15 °C 42.0 °F /  5.6 °C 29.8in /  1009hPa Calm     53% 0.000in /  0mm 0.00 W/m2
02:24 59.0 °F /  15 °C 42.0 °F /  5.6 °C 29.8in /  1009hPa SE 2mph /  3.2km/h   53% 0.000in /  0mm 0.00 W/m2
02:29 59.0 °F /  15 °C 42.0 °F /  5.6 °C 29.8in /  1009hPa Calm   2mph /  3.2km/h 54% 0.000in /  0mm 0.00 W/m2
02:34 59.0 °F /  15 °C 42.0 °F /  5.6 °C 29.8in /  1009hPa SE 2mph /  3.2km/h   54% 0.000in /  0mm 0.00 W/m2
02:39 59.0 °F /  15 °C 42.0 °F /  5.6 °C 29.8in /  1009hPa SE 4mph /  6.4km/h 2mph /  3.2km/h 54% 0.000in /  0mm 0.00 W/m2
02:43 58.0 °F /  14.4 °C 42.0 °F /  5.6 °C 29.8in /  1009hPa Calm   3mph /  4.8km/h 55% 0.000in /  0mm 0.00 W/m2
02:49 58.0 °F /  14.4 °C 42.0 °F /  5.6 °C 29.8in /  1009hPa ESE 4mph /  6.4km/h 1mph /  1.6km/h 55% 0.000in /  0mm 0.00 W/m2
02:54 58.0 °F /  14.4 °C 43.0 °F /  6.1 °C 29.8in /  1009hPa SSE 6mph /  9.7km/h 3mph /  4.8km/h 56% 0.000in /  0mm 0.00 W/m2
02:59 58.0 °F /  14.4 °C 43.0 °F /  6.1 °C 29.8in /  1009hPa ESE 2mph /  3.2km/h 6mph /  9.7km/h 57% 0.000in /  0mm 0.00 W/m2
03:04 58.0 °F /  14.4 °C 43.0 °F /  6.1 °C 29.8in /  1009hPa East 2mph /  3.2km/h 2mph /  3.2km/h 57% 0.000in /  0mm 0.00 W/m2
03:09 58.0 °F /  14.4 °C 43.0 °F /  6.1 °C 29.8in /  1009hPa Calm   2mph /  3.2km/h 57% 0.000in /  0mm 0.00 W/m2
03:14 58.0 °F /  14.4 °C 43.0 °F /  6.1 °C 29.8in /  1009hPa SE 2mph /  3.2km/h   58% 0.000in /  0mm 0.00 W/m2
03:19 57.0 °F /  13.9 °C 42.0 °F /  5.6 °C 29.8in /  1009hPa SSE 2mph /  3.2km/h 2mph /  3.2km/h 57% 0.000in /  0mm 0.00 W/m2
03:24 57.0 °F /  13.9 °C 42.0 °F /  5.6 °C 29.8in /  1009hPa Calm   2mph /  3.2km/h 58% 0.000in /  0mm 0.00 W/m2
03:29 57.0 °F /  13.9 °C 42.0 °F /  5.6 °C 29.8in /  1009hPa East 2mph /  3.2km/h   58% 0.000in /  0mm 0.00 W/m2
03:34 57.0 °F /  13.9 °C 42.0 °F /  5.6 °C 29.8in /  1009hPa Calm   2mph /  3.2km/h 58% 0.000in /  0mm 0.00 W/m2
03:39 57.0 °F /  13.9 °C 42.0 °F /  5.6 °C 29.8in /  1009hPa Calm     59% 0.000in /  0mm 0.00 W/m2
03:44 56.0 °F /  13.3 °C 42.0 °F /  5.6 °C 29.8in /  1009hPa Calm     59% 0.000in /  0mm 0.00 W/m2
03:49 56.0 °F /  13.3 °C 42.0 °F /  5.6 °C 29.8in /  1009hPa Calm     58% 0.000in /  0mm 0.00 W/m2
03:54 56.0 °F /  13.3 °C 41.0 °F /  5 °C 29.8in /  1009hPa Calm     58% 0.000in /  0mm 0.00 W/m2
03:59 56.0 °F /  13.3 °C 41.0 °F /  5 °C 29.8in /  1009hPa Calm     58% 0.000in /  0mm 0.00 W/m2
04:04 56.0 °F /  13.3 °C 41.0 °F /  5 °C 29.8in /  1009hPa Calm     58% 0.000in /  0mm 0.00 W/m2
04:09 56.0 °F /  13.3 °C 41.0 °F /  5 °C 29.8in /  1009hPa Calm     59% 0.000in /  0mm 0.00 W/m2
04:14 55.0 °F /  12.8 °C 41.0 °F /  5 °C 29.8in /  1009hPa Calm     58% 0.000in /  0mm 0.00 W/m2
04:19 55.0 °F /  12.8 °C 41.0 °F /  5 °C 29.8in /  1009hPa Calm     58% 0.000in /  0mm 0.00 W/m2
04:24 55.0 °F /  12.8 °C 41.0 °F /  5 °C 29.8in /  1009hPa Calm     58% 0.000in /  0mm 0.00 W/m2
04:29 55.0 °F /  12.8 °C 40.0 °F /  4.4 °C 29.8in /  1009hPa SSE 2mph /  3.2km/h   58% 0.000in /  0mm 0.00 W/m2
04:34 55.0 °F /  12.8 °C 41.0 °F /  5 °C 29.8in /  1009hPa Calm   2mph /  3.2km/h 59% 0.000in /  0mm 0.00 W/m2
04:39 55.0 °F /  12.8 °C 41.0 °F /  5 °C 29.8in /  1009hPa Calm     59% 0.000in /  0mm 0.00 W/m2
04:44 54.0 °F /  12.2 °C 40.0 °F /  4.4 °C 29.8in /  1009hPa Calm     59% 0.000in /  0mm 0.00 W/m2
04:49 54.0 °F /  12.2 °C 40.0 °F /  4.4 °C 29.8in /  1009hPa Calm     59% 0.000in /  0mm 0.00 W/m2
04:54 54.0 °F /  12.2 °C 41.0 °F /  5 °C 29.8in /  1009hPa Calm     61% 0.000in /  0mm 0.00 W/m2
04:59 54.0 °F /  12.2 °C 41.0 °F /  5 °C 29.8in /  1009hPa Calm     61% 0.000in /  0mm 0.00 W/m2
05:04 54.0 °F /  12.2 °C 40.0 °F /  4.4 °C 29.8in /  1009hPa SE 2mph /  3.2km/h 2mph /  3.2km/h 61% 0.000in /  0mm 0.00 W/m2
05:09 53.0 °F /  11.7 °C 41.0 °F /  5 °C 29.8in /  1009hPa Calm     63% 0.000in /  0mm 0.00 W/m2
05:14 53.0 °F /  11.7 °C 41.0 °F /  5 °C 29.9in /  1012.4hPa SE 2mph /  3.2km/h   64% 0.000in /  0mm 0.00 W/m2
05:19 53.0 °F /  11.7 °C 41.0 °F /  5 °C 29.9in /  1012.4hPa Calm   2mph /  3.2km/h 63% 0.000in /  0mm 0.00 W/m2
05:24 53.0 °F /  11.7 °C 40.0 °F /  4.4 °C 29.9in /  1012.4hPa Calm     63% 0.000in /  0mm 0.00 W/m2
05:29 53.0 °F /  11.7 °C 41.0 °F /  5 °C 29.9in /  1012.4hPa Calm     64% 0.000in /  0mm 0.00 W/m2
05:34 53.0 °F /  11.7 °C 40.0 °F /  4.4 °C 29.9in /  1012.4hPa Calm     63% 0.000in /  0mm 0.00 W/m2
05:39 52.0 °F /  11.1 °C 40.0 °F /  4.4 °C 29.9in /  1012.4hPa Calm     63% 0.000in /  0mm 0.00 W/m2
05:44 52.0 °F /  11.1 °C 40.0 °F /  4.4 °C 29.9in /  1012.4hPa SE 2mph /  3.2km/h   63% 0.000in /  0mm 0.00 W/m2
05:49 52.0 °F /  11.1 °C 40.0 °F /  4.4 °C 29.9in /  1012.4hPa Calm   2mph /  3.2km/h 63% 0.000in /  0mm 0.00 W/m2
05:54 52.0 °F /  11.1 °C 40.0 °F /  4.4 °C 29.9in /  1012.4hPa Calm     64% 0.000in /  0mm 0.00 W/m2
05:59 52.0 °F /  11.1 °C 40.0 °F /  4.4 °C 29.9in /  1012.4hPa Calm     65% 0.000in /  0mm 5.00 W/m2
06:04 52.0 °F /  11.1 °C 40.0 °F /  4.4 °C 29.9in /  1012.4hPa ESE 2mph /  3.2km/h   65% 0.000in /  0mm 5.00 W/m2
06:09 52.0 °F /  11.1 °C 40.0 °F /  4.4 °C 29.9in /  1012.4hPa ESE 2mph /  3.2km/h 2mph /  3.2km/h 65% 0.000in /  0mm 7.00 W/m2
06:14 51.0 °F /  10.6 °C 40.0 °F /  4.4 °C 29.9in /  1012.4hPa ESE 2mph /  3.2km/h 2mph /  3.2km/h 65% 0.000in /  0mm 7.00 W/m2
06:19 51.0 °F /  10.6 °C 40.0 °F /  4.4 °C 29.9in /  1012.4hPa Calm     65% 0.000in /  0mm 7.00 W/m2
06:24 51.0 °F /  10.6 °C 40.0 °F /  4.4 °C 29.9in /  1012.4hPa Calm     65% 0.000in /  0mm 7.00 W/m2
06:29 51.0 °F /  10.6 °C 40.0 °F /  4.4 °C 29.9in /  1012.4hPa Calm     65% 0.000in /  0mm 9.00 W/m2
06:34 51.0 °F /  10.6 °C 40.0 °F /  4.4 °C 29.9in /  1012.4hPa Calm     66% 0.000in /  0mm 11.00 W/m2
06:39 51.0 °F /  10.6 °C 40.0 °F /  4.4 °C 29.9in /  1012.4hPa Calm     66% 0.000in /  0mm 14.00 W/m2
06:44 51.0 °F /  10.6 °C 40.0 °F /  4.4 °C 29.9in /  1012.4hPa Calm     66% 0.000in /  0mm 14.00 W/m2
06:49 51.0 °F /  10.6 °C 40.0 °F /  4.4 °C 29.9in /  1012.4hPa SE 2mph /  3.2km/h   67% 0.000in /  0mm 16.00 W/m2
06:54 51.0 °F /  10.6 °C 40.0 °F /  4.4 °C 29.9in /  1012.4hPa SSE 6mph /  9.7km/h 2mph /  3.2km/h 67% 0.000in /  0mm 16.00 W/m2
06:59 51.0 °F /  10.6 °C 41.0 °F /  5 °C 29.9in /  1012.4hPa Calm   6mph /  9.7km/h 68% 0.000in /  0mm 16.00 W/m2
07:04 51.0 °F /  10.6 °C 41.0 °F /  5 °C 29.9in /  1012.4hPa South 4mph /  6.4km/h 2mph /  3.2km/h 68% 0.000in /  0mm 18.00 W/m2
07:09 51.0 °F /  10.6 °C 41.0 °F /  5 °C 29.9in /  1012.4hPa SE 2mph /  3.2km/h 3mph /  4.8km/h 68% 0.000in /  0mm 18.00 W/m2
07:14 51.0 °F /  10.6 °C 41.0 °F /  5 °C 29.9in /  1012.4hPa SSE 7mph /  11.3km/h 2mph /  3.2km/h 68% 0.000in /  0mm 19.00 W/m2
07:19 51.0 °F /  10.6 °C 41.0 °F /  5 °C 29.9in /  1012.4hPa SSE 2mph /  3.2km/h 7mph /  11.3km/h 68% 0.000in /  0mm 19.00 W/m2
07:24 52.0 °F /  11.1 °C 41.0 °F /  5 °C 29.9in /  1012.4hPa ESE 2mph /  3.2km/h 2mph /  3.2km/h 68% 0.000in /  0mm 21.00 W/m2
07:29 52.0 °F /  11.1 °C 42.0 °F /  5.6 °C 29.9in /  1012.4hPa SSE 2mph /  3.2km/h 2mph /  3.2km/h 68% 0.000in /  0mm 21.00 W/m2
07:34 53.0 °F /  11.7 °C 42.0 °F /  5.6 °C 29.9in /  1012.4hPa SSE 2mph /  3.2km/h 2mph /  3.2km/h 68% 0.000in /  0mm 23.00 W/m2
07:39 53.0 °F /  11.7 °C 42.0 °F /  5.6 °C 29.9in /  1012.4hPa SE 2mph /  3.2km/h 2mph /  3.2km/h 66% 0.000in /  0mm 25.00 W/m2
07:44 53.0 °F /  11.7 °C 42.0 °F /  5.6 °C 29.9in /  1012.4hPa SE 7mph /  11.3km/h 3mph /  4.8km/h 66% 0.000in /  0mm 26.00 W/m2
07:49 53.0 °F /  11.7 °C 42.0 °F /  5.6 °C 29.9in /  1012.4hPa SSE 6mph /  9.7km/h 7mph /  11.3km/h 64% 0.000in /  0mm 28.00 W/m2
07:54 54.0 °F /  12.2 °C 42.0 °F /  5.6 °C 29.9in /  1012.4hPa South 6mph /  9.7km/h 6mph /  9.7km/h 64% 0.000in /  0mm 54.00 W/m2
07:59 54.0 °F /  12.2 °C 42.0 °F /  5.6 °C 29.9in /  1012.4hPa East 4mph /  6.4km/h 6mph /  9.7km/h 64% 0.000in /  0mm 37.00 W/m2
08:04 55.0 °F /  12.8 °C 42.0 °F /  5.6 °C 29.9in /  1012.4hPa SE 4mph /  6.4km/h 3mph /  4.8km/h 64% 0.000in /  0mm 35.00 W/m2
08:09 55.0 °F /  12.8 °C 42.0 °F /  5.6 °C 29.9in /  1012.4hPa WSW 4mph /  6.4km/h 3mph /  4.8km/h 62% 0.000in /  0mm 35.00 W/m2
08:14 56.0 °F /  13.3 °C 42.0 °F /  5.6 °C 29.9in /  1012.4hPa SE 9mph /  14.5km/h 3mph /  4.8km/h 60% 0.000in /  0mm 97.00 W/m2
08:19 57.0 °F /  13.9 °C 42.0 °F /  5.6 °C 29.9in /  1012.4hPa South 9mph /  14.5km/h 9mph /  14.5km/h 60% 0.000in /  0mm 144.00 W/m2
08:24 57.0 °F /  13.9 °C 42.0 °F /  5.6 °C 29.9in /  1012.4hPa SSE 9mph /  14.5km/h 7mph /  11.3km/h 59% 0.000in /  0mm 188.00 W/m2
08:29 58.0 °F /  14.4 °C 43.0 °F /  6.1 °C 29.9in /  1012.4hPa South 7mph /  11.3km/h 9mph /  14.5km/h 58% 0.000in /  0mm 86.00 W/m2
08:34 58.0 °F /  14.4 °C 43.0 °F /  6.1 °C 29.9in /  1012.4hPa SE 4mph /  6.4km/h 3mph /  4.8km/h 57% 0.000in /  0mm 531.00 W/m2
08:39 58.0 °F /  14.4 °C 43.0 °F /  6.1 °C 29.9in /  1012.4hPa SE 2mph /  3.2km/h 3mph /  4.8km/h 57% 0.000in /  0mm 547.00 W/m2
08:44 59.0 °F /  15 °C 44.0 °F /  6.7 °C 29.9in /  1012.4hPa SE 11mph /  17.7km/h 4mph /  6.4km/h 57% 0.000in /  0mm 561.00 W/m2
08:49 59.0 °F /  15 °C 44.0 °F /  6.7 °C 29.9in /  1012.4hPa South 2mph /  3.2km/h 10mph /  16.1km/h 56% 0.000in /  0mm 580.00 W/m2
08:54 60.0 °F /  15.6 °C 44.0 °F /  6.7 °C 29.9in /  1012.4hPa ESE 4mph /  6.4km/h 2mph /  3.2km/h 56% 0.000in /  0mm 580.00 W/m2
08:59 61.0 °F /  16.1 °C 44.0 °F /  6.7 °C 29.9in /  1012.4hPa SSW 7mph /  11.3km/h 3mph /  4.8km/h 55% 0.000in /  0mm 610.00 W/m2
09:04 61.0 °F /  16.1 °C 43.0 °F /  6.1 °C 29.9in /  1012.4hPa SSW 9mph /  14.5km/h 7mph /  11.3km/h 52% 0.000in /  0mm 626.00 W/m2
09:09 62.0 °F /  16.7 °C 43.0 °F /  6.1 °C 29.9in /  1012.4hPa West 9mph /  14.5km/h 9mph /  14.5km/h 51% 0.000in /  0mm 642.00 W/m2
09:14 62.0 °F /  16.7 °C 43.0 °F /  6.1 °C 29.9in /  1012.4hPa West 6mph /  9.7km/h 9mph /  14.5km/h 49% 0.000in /  0mm 656.00 W/m2
09:19 62.0 °F /  16.7 °C 43.0 °F /  6.1 °C 29.9in /  1012.4hPa SE 4mph /  6.4km/h 6mph /  9.7km/h 50% 0.000in /  0mm 671.00 W/m2
09:24 63.0 °F /  17.2 °C 43.0 °F /  6.1 °C 29.9in /  1012.4hPa SSW 7mph /  11.3km/h 3mph /  4.8km/h 49% 0.000in /  0mm 684.00 W/m2
09:29 63.0 °F /  17.2 °C 43.0 °F /  6.1 °C 29.9in /  1012.4hPa SW 2mph /  3.2km/h 7mph /  11.3km/h 48% 0.000in /  0mm 694.00 W/m2
09:34 64.0 °F /  17.8 °C 43.0 °F /  6.1 °C 29.9in /  1012.4hPa SSE 2mph /  3.2km/h 2mph /  3.2km/h 47% 0.000in /  0mm 710.00 W/m2
09:39 64.0 °F /  17.8 °C 43.0 °F /  6.1 °C 29.9in /  1012.4hPa SSE 9mph /  14.5km/h 5mph /  8km/h 47% 0.000in /  0mm 722.00 W/m2
09:44 64.0 °F /  17.8 °C 41.0 °F /  5 °C 29.9in /  1012.4hPa WNW 7mph /  11.3km/h 9mph /  14.5km/h 43% 0.000in /  0mm 733.00 W/m2
09:49 65.0 °F /  18.3 °C 42.0 °F /  5.6 °C 29.9in /  1012.4hPa West 4mph /  6.4km/h 7mph /  11.3km/h 44% 0.000in /  0mm 747.00 W/m2
09:54 65.0 °F /  18.3 °C 43.0 °F /  6.1 °C 29.9in /  1012.4hPa WSW 7mph /  11.3km/h 3mph /  4.8km/h 46% 0.000in /  0mm 759.00 W/m2
09:59 65.0 °F /  18.3 °C 43.0 °F /  6.1 °C 29.9in /  1012.4hPa WNW 6mph /  9.7km/h 7mph /  11.3km/h 45% 0.000in /  0mm 773.00 W/m2
10:04 65.0 °F /  18.3 °C 42.0 °F /  5.6 °C 29.9in /  1012.4hPa SW 11mph /  17.7km/h 6mph /  9.7km/h 43% 0.000in /  0mm 784.00 W/m2
10:09 66.0 °F /  18.9 °C 42.0 °F /  5.6 °C 29.9in /  1012.4hPa WNW 6mph /  9.7km/h 10mph /  16.1km/h 42% 0.000in /  0mm 798.00 W/m2
10:14 66.0 °F /  18.9 °C 43.0 °F /  6.1 °C 29.9in /  1012.4hPa SSE 4mph /  6.4km/h 6mph /  9.7km/h 44% 0.000in /  0mm 812.00 W/m2
10:19 66.0 °F /  18.9 °C 42.0 °F /  5.6 °C 29.9in /  1012.4hPa West 6mph /  9.7km/h 3mph /  4.8km/h 42% 0.000in /  0mm 821.00 W/m2
10:24 67.0 °F /  19.4 °C 43.0 °F /  6.1 °C 29.9in /  1012.4hPa West 7mph /  11.3km/h 7mph /  11.3km/h 42% 0.000in /  0mm 830.00 W/m2
10:29 67.0 °F /  19.4 °C 43.0 °F /  6.1 °C 29.9in /  1012.4hPa WSW 7mph /  11.3km/h 7mph /  11.3km/h 43% 0.000in /  0mm 830.00 W/m2
10:34 67.0 °F /  19.4 °C 43.0 °F /  6.1 °C 29.9in /  1012.4hPa West 6mph /  9.7km/h 7mph /  11.3km/h 42% 0.000in /  0mm 849.00 W/m2
10:39 67.0 °F /  19.4 °C 44.0 °F /  6.7 °C 29.9in /  1012.4hPa WNW 9mph /  14.5km/h 6mph /  9.7km/h 43% 0.000in /  0mm 860.00 W/m2
10:44 67.0 °F /  19.4 °C 44.0 °F /  6.7 °C 29.9in /  1012.4hPa WSW 11mph /  17.7km/h 9mph /  14.5km/h 43% 0.000in /  0mm 872.00 W/m2
10:49 67.0 °F /  19.4 °C 43.0 °F /  6.1 °C 29.9in /  1012.4hPa WNW 9mph /  14.5km/h 10mph /  16.1km/h 42% 0.000in /  0mm 886.00 W/m2
10:54 68.0 °F /  20 °C 44.0 °F /  6.7 °C 29.9in /  1012.4hPa West 7mph /  11.3km/h 9mph /  14.5km/h 43% 0.000in /  0mm 895.00 W/m2
10:59 68.0 °F /  20 °C 45.0 °F /  7.2 °C 29.9in /  1012.4hPa SSW 4mph /  6.4km/h 7mph /  11.3km/h 43% 0.000in /  0mm 900.00 W/m2
11:04 69.0 °F /  20.6 °C 44.0 °F /  6.7 °C 29.9in /  1012.4hPa WSW 13mph /  20.9km/h 8mph /  12.9km/h 42% 0.000in /  0mm 912.00 W/m2
11:09 69.0 °F /  20.6 °C 44.0 °F /  6.7 °C 29.9in /  1012.4hPa ESE 11mph /  17.7km/h 13mph /  20.9km/h 40% 0.000in /  0mm 918.00 W/m2
11:14 70.0 °F /  21.1 °C 44.0 °F /  6.7 °C 29.9in /  1012.4hPa WNW 9mph /  14.5km/h 10mph /  16.1km/h 39% 0.000in /  0mm 926.00 W/m2
11:19 70.0 °F /  21.1 °C 44.0 °F /  6.7 °C 29.9in /  1012.4hPa SSW 9mph /  14.5km/h 9mph /  14.5km/h 39% 0.000in /  0mm 933.00 W/m2
11:24 71.0 °F /  21.7 °C 45.0 °F /  7.2 °C 29.9in /  1012.4hPa ESE 7mph /  11.3km/h 7mph /  11.3km/h 40% 0.000in /  0mm 942.00 W/m2
11:29 71.0 °F /  21.7 °C 44.0 °F /  6.7 °C 29.9in /  1012.4hPa WSW 9mph /  14.5km/h 7mph /  11.3km/h 38% 0.000in /  0mm 951.00 W/m2
11:34 71.0 °F /  21.7 °C 44.0 °F /  6.7 °C 29.9in /  1012.4hPa SW 13mph /  20.9km/h 13mph /  20.9km/h 37% 0.000in /  0mm 953.00 W/m2
11:39 72.0 °F /  22.2 °C 44.0 °F /  6.7 °C 29.9in /  1012.4hPa North 9mph /  14.5km/h 9mph /  14.5km/h 37% 0.000in /  0mm 956.00 W/m2
11:44 72.0 °F /  22.2 °C 43.0 °F /  6.1 °C 29.9in /  1012.4hPa West 6mph /  9.7km/h 9mph /  14.5km/h 36% 0.000in /  0mm 962.00 W/m2
11:49 72.0 °F /  22.2 °C 43.0 °F /  6.1 °C 29.9in /  1012.4hPa WSW 9mph /  14.5km/h 8mph /  12.9km/h 36% 0.000in /  0mm 967.00 W/m2
11:54 72.0 °F /  22.2 °C 43.0 °F /  6.1 °C 29.9in /  1012.4hPa WNW 11mph /  17.7km/h 9mph /  14.5km/h 35% 0.000in /  0mm 974.00 W/m2
11:59 72.0 °F /  22.2 °C 43.0 °F /  6.1 °C 29.9in /  1012.4hPa SSW 14mph /  22.5km/h 10mph /  16.1km/h 35% 0.000in /  0mm 974.00 W/m2
12:04 72.0 °F /  22.2 °C 43.0 °F /  6.1 °C 29.9in /  1012.4hPa East 6mph /  9.7km/h 14mph /  22.5km/h 36% 0.000in /  0mm 979.00 W/m2
12:09 72.0 °F /  22.2 °C 44.0 °F /  6.7 °C 29.9in /  1012.4hPa WNW 4mph /  6.4km/h 6mph /  9.7km/h 36% 0.000in /  0mm 983.00 W/m2
12:14 73.0 °F /  22.8 °C 44.0 °F /  6.7 °C 29.9in /  1012.4hPa SE 16mph /  25.7km/h 8mph /  12.9km/h 36% 0.000in /  0mm 986.00 W/m2
12:19 73.0 °F /  22.8 °C 44.0 °F /  6.7 °C 29.9in /  1012.4hPa WSW 11mph /  17.7km/h 16mph /  25.7km/h 35% 0.000in /  0mm 990.00 W/m2
12:24 73.0 °F /  22.8 °C 42.0 °F /  5.6 °C 29.9in /  1012.4hPa West 16mph /  25.7km/h 10mph /  16.1km/h 33% 0.000in /  0mm 991.00 W/m2
12:29 73.0 °F /  22.8 °C 44.0 °F /  6.7 °C 29.9in /  1012.4hPa West 13mph /  20.9km/h 16mph /  25.7km/h 35% 0.000in /  0mm 993.00 W/m2
12:34 73.0 °F /  22.8 °C 44.0 °F /  6.7 °C 29.9in /  1012.4hPa NW 13mph /  20.9km/h 13mph /  20.9km/h 35% 0.000in /  0mm 993.00 W/m2
12:39 74.0 °F /  23.3 °C 44.0 °F /  6.7 °C 29.9in /  1012.4hPa West 13mph /  20.9km/h 13mph /  20.9km/h 34% 0.000in /  0mm 997.00 W/m2
12:44 74.0 °F /  23.3 °C 43.0 °F /  6.1 °C 29.9in /  1012.4hPa WSW 11mph /  17.7km/h 13mph /  20.9km/h 33% 0.000in /  0mm 995.00 W/m2
12:49 74.0 °F /  23.3 °C 43.0 °F /  6.1 °C 29.9in /  1012.4hPa SW 16mph /  25.7km/h 10mph /  16.1km/h 33% 0.000in /  0mm 997.00 W/m2
12:54 74.0 °F /  23.3 °C 42.0 °F /  5.6 °C 29.9in /  1012.4hPa WSW 13mph /  20.9km/h 16mph /  25.7km/h 32% 0.000in /  0mm 995.00 W/m2
12:59 74.0 °F /  23.3 °C 42.0 °F /  5.6 °C 29.9in /  1012.4hPa WSW 18mph /  29km/h 9mph /  14.5km/h 31% 0.000in /  0mm 997.00 W/m2
13:04 75.0 °F /  23.9 °C 43.0 °F /  6.1 °C 29.9in /  1012.4hPa South 17mph /  27.4km/h 17mph /  27.4km/h 33% 0.000in /  0mm 997.00 W/m2
13:09 75.0 °F /  23.9 °C 43.0 °F /  6.1 °C 29.9in /  1012.4hPa WSW 12mph /  19.3km/h 10mph /  16.1km/h 32% 0.000in /  0mm 993.00 W/m2
13:14 75.0 °F /  23.9 °C 42.0 °F /  5.6 °C 29.9in /  1012.4hPa SW 16mph /  25.7km/h 13mph /  20.9km/h 31% 0.000in /  0mm 993.00 W/m2
13:19 75.0 °F /  23.9 °C 41.0 °F /  5 °C 29.9in /  1012.4hPa WSW 9mph /  14.5km/h 16mph /  25.7km/h 30% 0.000in /  0mm 993.00 W/m2
13:24 75.0 °F /  23.9 °C 41.0 °F /  5 °C 29.9in /  1012.4hPa West 11mph /  17.7km/h 10mph /  16.1km/h 30% 0.000in /  0mm 986.00 W/m2
13:29 76.0 °F /  24.4 °C 43.0 °F /  6.1 °C 29.9in /  1012.4hPa WSW 6mph /  9.7km/h 9mph /  14.5km/h 31% 0.000in /  0mm 988.00 W/m2
13:34 76.0 °F /  24.4 °C 42.0 °F /  5.6 °C 29.9in /  1012.4hPa West 11mph /  17.7km/h 9mph /  14.5km/h 30% 0.000in /  0mm 984.00 W/m2
13:39 77.0 °F /  25 °C 42.0 °F /  5.6 °C 29.9in /  1012.4hPa ESE 9mph /  14.5km/h 10mph /  16.1km/h 29% 0.000in /  0mm 977.00 W/m2
13:44 77.0 °F /  25 °C 41.0 °F /  5 °C 29.9in /  1012.4hPa WSW 9mph /  14.5km/h 9mph /  14.5km/h 28% 0.000in /  0mm 977.00 W/m2
13:49 77.0 °F /  25 °C 41.0 °F /  5 °C 29.9in /  1012.4hPa SSE 9mph /  14.5km/h 9mph /  14.5km/h 28% 0.000in /  0mm 972.00 W/m2
13:54 78.0 °F /  25.6 °C 42.0 °F /  5.6 °C 29.9in /  1012.4hPa West 7mph /  11.3km/h 9mph /  14.5km/h 28% 0.000in /  0mm 969.00 W/m2
13:59 78.0 °F /  25.6 °C 40.0 °F /  4.4 °C 29.9in /  1012.4hPa West 7mph /  11.3km/h 7mph /  11.3km/h 26% 0.000in /  0mm 960.00 W/m2
14:04 78.0 °F /  25.6 °C 41.0 °F /  5 °C 29.9in /  1012.4hPa WSW 18mph /  29km/h 8mph /  12.9km/h 27% 0.000in /  0mm 954.00 W/m2
14:09 78.0 °F /  25.6 °C 41.0 °F /  5 °C 29.9in /  1012.4hPa WSW 17mph /  27.4km/h 17mph /  27.4km/h 27% 0.000in /  0mm 947.00 W/m2
14:14 78.0 °F /  25.6 °C 40.0 °F /  4.4 °C 29.9in /  1012.4hPa WSW 16mph /  25.7km/h 19mph /  30.6km/h 26% 0.000in /  0mm 939.00 W/m2
14:19 78.0 °F /  25.6 °C 39.0 °F /  3.9 °C 29.9in /  1012.4hPa West 13mph /  20.9km/h 16mph /  25.7km/h 25% 0.000in /  0mm 933.00 W/m2
14:24 78.0 °F /  25.6 °C 40.0 °F /  4.4 °C 29.9in /  1012.4hPa NNW 13mph /  20.9km/h 13mph /  20.9km/h 26% 0.000in /  0mm 928.00 W/m2
14:29 78.0 °F /  25.6 °C 41.0 °F /  5 °C 29.9in /  1012.4hPa NE 12mph /  19.3km/h 10mph /  16.1km/h 27% 0.000in /  0mm 919.00 W/m2
14:34 78.0 °F /  25.6 °C 40.0 °F /  4.4 °C 29.9in /  1012.4hPa West 16mph /  25.7km/h 13mph /  20.9km/h 26% 0.000in /  0mm 914.00 W/m2
14:39 78.0 °F /  25.6 °C 38.0 °F /  3.3 °C 29.9in /  1012.4hPa West 16mph /  25.7km/h 16mph /  25.7km/h 24% 0.000in /  0mm 905.00 W/m2
14:44 78.0 °F /  25.6 °C 39.0 °F /  3.9 °C 29.9in /  1012.4hPa West 13mph /  20.9km/h 13mph /  20.9km/h 25% 0.000in /  0mm 893.00 W/m2
14:49 78.0 °F /  25.6 °C 40.0 °F /  4.4 °C 29.9in /  1012.4hPa NW 14mph /  22.5km/h 13mph /  20.9km/h 26% 0.000in /  0mm 886.00 W/m2
14:54 78.0 °F /  25.6 °C 39.0 °F /  3.9 °C 29.9in /  1012.4hPa SE 20mph /  32.2km/h 14mph /  22.5km/h 25% 0.000in /  0mm 877.00 W/m2
14:59 78.0 °F /  25.6 °C 38.0 °F /  3.3 °C 29.9in /  1012.4hPa NW 13mph /  20.9km/h 20mph /  32.2km/h 24% 0.000in /  0mm 863.00 W/m2
15:04 78.0 °F /  25.6 °C 38.0 °F /  3.3 °C 29.9in /  1012.4hPa WNW 13mph /  20.9km/h 13mph /  20.9km/h 24% 0.000in /  0mm 858.00 W/m2
15:09 78.0 °F /  25.6 °C 38.0 °F /  3.3 °C 29.9in /  1012.4hPa West 13mph /  20.9km/h 13mph /  20.9km/h 24% 0.000in /  0mm 846.00 W/m2
15:14 78.0 °F /  25.6 °C 37.0 °F /  2.8 °C 29.9in /  1012.4hPa WSW 16mph /  25.7km/h 13mph /  20.9km/h 23% 0.000in /  0mm 831.00 W/m2
15:19 78.0 °F /  25.6 °C 38.0 °F /  3.3 °C 29.9in /  1012.4hPa SW 18mph /  29km/h 16mph /  25.7km/h 24% 0.000in /  0mm 819.00 W/m2
15:24 78.0 °F /  25.6 °C 39.0 °F /  3.9 °C 29.9in /  1012.4hPa SSE 11mph /  17.7km/h 17mph /  27.4km/h 25% 0.000in /  0mm 807.00 W/m2
15:29 78.0 °F /  25.6 °C 39.0 °F /  3.9 °C 29.9in /  1012.4hPa SSW 20mph /  32.2km/h 10mph /  16.1km/h 25% 0.000in /  0mm 800.00 W/m2
15:34 78.0 °F /  25.6 °C 37.0 °F /  2.8 °C 29.9in /  1012.4hPa SW 18mph /  29km/h 20mph /  32.2km/h 23% 0.000in /  0mm 788.00 W/m2
15:39 78.0 °F /  25.6 °C 37.0 °F /  2.8 °C 29.9in /  1012.4hPa WSW 13mph /  20.9km/h 17mph /  27.4km/h 23% 0.000in /  0mm 773.00 W/m2
15:44 78.0 °F /  25.6 °C 38.0 °F /  3.3 °C 29.9in /  1012.4hPa WSW 11mph /  17.7km/h 13mph /  20.9km/h 24% 0.000in /  0mm 759.00 W/m2
15:49 79.0 °F /  26.1 °C 40.0 °F /  4.4 °C 29.9in /  1012.4hPa NNW 13mph /  20.9km/h 10mph /  16.1km/h 25% 0.000in /  0mm 751.00 W/m2
15:54 79.0 °F /  26.1 °C 39.0 °F /  3.9 °C 29.9in /  1012.4hPa West 21mph /  33.8km/h 13mph /  20.9km/h 24% 0.000in /  0mm 737.00 W/m2
15:59 79.0 °F /  26.1 °C 40.0 °F /  4.4 °C 29.9in /  1012.4hPa SE 9mph /  14.5km/h 21mph /  33.8km/h 25% 0.000in /  0mm 726.00 W/m2
16:04 79.0 °F /  26.1 °C 40.0 °F /  4.4 °C 29.9in /  1012.4hPa East 11mph /  17.7km/h 9mph /  14.5km/h 25% 0.000in /  0mm 707.00 W/m2
16:09 79.0 °F /  26.1 °C 39.0 °F /  3.9 °C 29.9in /  1012.4hPa South 16mph /  25.7km/h 10mph /  16.1km/h 24% 0.000in /  0mm 694.00 W/m2
16:14 79.0 °F /  26.1 °C 40.0 °F /  4.4 °C 29.9in /  1012.4hPa SE 6mph /  9.7km/h 16mph /  25.7km/h 25% 0.000in /  0mm 682.00 W/m2
16:19 79.0 °F /  26.1 °C 40.0 °F /  4.4 °C 29.9in /  1012.4hPa SW 21mph /  33.8km/h 15mph /  24.1km/h 25% 0.000in /  0mm 663.00 W/m2
16:24 79.0 °F /  26.1 °C 39.0 °F /  3.9 °C 29.9in /  1012.4hPa ESE 20mph /  32.2km/h 21mph /  33.8km/h 24% 0.000in /  0mm 649.00 W/m2
16:29 79.0 °F /  26.1 °C 39.0 °F /  3.9 °C 29.9in /  1012.4hPa SW 11mph /  17.7km/h 14mph /  22.5km/h 24% 0.000in /  0mm 633.00 W/m2
16:34 78.0 °F /  25.6 °C 40.0 °F /  4.4 °C 29.9in /  1012.4hPa WSW 13mph /  20.9km/h 10mph /  16.1km/h 25% 0.000in /  0mm 621.00 W/m2
16:39 78.0 °F /  25.6 °C 40.0 °F /  4.4 °C 29.9in /  1012.4hPa SSW 13mph /  20.9km/h 13mph /  20.9km/h 26% 0.000in /  0mm 605.00 W/m2
16:44 78.0 °F /  25.6 °C 40.0 °F /  4.4 °C 29.9in /  1012.4hPa West 9mph /  14.5km/h 13mph /  20.9km/h 26% 0.000in /  0mm 591.00 W/m2
16:49 78.0 °F /  25.6 °C 40.0 °F /  4.4 °C 29.9in /  1012.4hPa South 7mph /  11.3km/h 9mph /  14.5km/h 26% 0.000in /  0mm 575.00 W/m2
16:54 78.0 °F /  25.6 °C 41.0 °F /  5 °C 29.9in /  1012.4hPa SE 16mph /  25.7km/h 16mph /  25.7km/h 27% 0.000in /  0mm 557.00 W/m2
16:59 78.0 °F /  25.6 °C 40.0 °F /  4.4 °C 29.9in /  1012.4hPa SW 16mph /  25.7km/h 10mph /  16.1km/h 26% 0.000in /  0mm 543.00 W/m2
17:04 78.0 °F /  25.6 °C 40.0 °F /  4.4 °C 29.9in /  1012.4hPa South 11mph /  17.7km/h 16mph /  25.7km/h 26% 0.000in /  0mm 529.00 W/m2
17:09 78.0 °F /  25.6 °C 40.0 °F /  4.4 °C 29.9in /  1012.4hPa WSW 14mph /  22.5km/h 10mph /  16.1km/h 26% 0.000in /  0mm 515.00 W/m2
17:14 77.0 °F /  25 °C 39.0 °F /  3.9 °C 29.9in /  1012.4hPa ESE 13mph /  20.9km/h 14mph /  22.5km/h 25% 0.000in /  0mm 496.00 W/m2
17:19 77.0 °F /  25 °C 39.0 °F /  3.9 °C 29.9in /  1012.4hPa WSW 7mph /  11.3km/h 13mph /  20.9km/h 26% 0.000in /  0mm 480.00 W/m2
17:24 77.0 °F /  25 °C 40.0 °F /  4.4 °C 29.9in /  1012.4hPa South 9mph /  14.5km/h 7mph /  11.3km/h 26% 0.000in /  0mm 464.00 W/m2
17:29 77.0 °F /  25 °C 38.0 °F /  3.3 °C 29.9in /  1012.4hPa South 16mph /  25.7km/h 10mph /  16.1km/h 24% 0.000in /  0mm 448.00 W/m2
17:34 77.0 °F /  25 °C 38.0 °F /  3.3 °C 29.9in /  1012.4hPa SW 13mph /  20.9km/h 16mph /  25.7km/h 25% 0.000in /  0mm 429.00 W/m2
17:39 76.0 °F /  24.4 °C 40.0 °F /  4.4 °C 29.9in /  1012.4hPa WSW 9mph /  14.5km/h 13mph /  20.9km/h 27% 0.000in /  0mm 417.00 W/m2
17:44 76.0 °F /  24.4 °C 40.0 °F /  4.4 °C 29.9in /  1012.4hPa SW 16mph /  25.7km/h 16mph /  25.7km/h 27% 0.000in /  0mm 397.00 W/m2
17:49 76.0 °F /  24.4 °C 38.0 °F /  3.3 °C 29.9in /  1012.4hPa WSW 20mph /  32.2km/h 16mph /  25.7km/h 26% 0.000in /  0mm 383.00 W/m2
17:54 75.0 °F /  23.9 °C 39.0 °F /  3.9 °C 29.9in /  1012.4hPa West 14mph /  22.5km/h 20mph /  32.2km/h 28% 0.000in /  0mm 364.00 W/m2
17:59 75.0 °F /  23.9 °C 41.0 °F /  5 °C 29.9in /  1012.4hPa NW 7mph /  11.3km/h 13mph /  20.9km/h 30% 0.000in /  0mm 339.00 W/m2
18:04 74.0 °F /  23.3 °C 40.0 °F /  4.4 °C 29.9in /  1012.4hPa South 20mph /  32.2km/h 14mph /  22.5km/h 29% 0.000in /  0mm 113.00 W/m2
18:09 73.0 °F /  22.8 °C 40.0 °F /  4.4 °C 29.9in /  1012.4hPa SSW 18mph /  29km/h 20mph /  32.2km/h 30% 0.000in /  0mm 60.00 W/m2
18:14 73.0 °F /  22.8 °C 39.0 °F /  3.9 °C 29.9in /  1012.4hPa SW 16mph /  25.7km/h 17mph /  27.4km/h 30% 0.000in /  0mm 51.00 W/m2
18:19 72.0 °F /  22.2 °C 39.0 °F /  3.9 °C 29.9in /  1012.4hPa SW 13mph /  20.9km/h 16mph /  25.7km/h 30% 0.000in /  0mm 49.00 W/m2
18:24 71.0 °F /  21.7 °C 40.0 °F /  4.4 °C 29.9in /  1012.4hPa WNW 16mph /  25.7km/h 13mph /  20.9km/h 32% 0.000in /  0mm 46.00 W/m2
18:29 71.0 °F /  21.7 °C 38.0 °F /  3.3 °C 29.9in /  1012.4hPa WSW 9mph /  14.5km/h 16mph /  25.7km/h 30% 0.000in /  0mm 40.00 W/m2
18:34 70.0 °F /  21.1 °C 37.0 °F /  2.8 °C 29.9in /  1012.4hPa SW 20mph /  32.2km/h 15mph /  24.1km/h 29% 0.000in /  0mm 37.00 W/m2
18:39 70.0 °F /  21.1 °C 35.0 °F /  1.7 °C 29.9in /  1012.4hPa WSW 21mph /  33.8km/h 20mph /  32.2km/h 28% 0.000in /  0mm 33.00 W/m2
18:44 69.0 °F /  20.6 °C 35.0 °F /  1.7 °C 29.9in /  1012.4hPa WSW 11mph /  17.7km/h 21mph /  33.8km/h 28% 0.000in /  0mm 51.00 W/m2
18:49 69.0 °F /  20.6 °C 34.0 °F /  1.1 °C 29.9in /  1012.4hPa WNW 10mph /  16.1km/h 10mph /  16.1km/h 28% 0.000in /  0mm 58.00 W/m2
18:54 69.0 °F /  20.6 °C 34.0 °F /  1.1 °C 29.9in /  1012.4hPa South 9mph /  14.5km/h 7mph /  11.3km/h 28% 0.000in /  0mm 62.00 W/m2
18:59 68.0 °F /  20 °C 35.0 °F /  1.7 °C 29.9in /  1012.4hPa WSW 16mph /  25.7km/h 12mph /  19.3km/h 29% 0.000in /  0mm 46.00 W/m2
19:04 68.0 °F /  20 °C 35.0 °F /  1.7 °C 29.9in /  1012.4hPa SW 13mph /  20.9km/h 16mph /  25.7km/h 30% 0.000in /  0mm 37.00 W/m2
19:09 68.0 °F /  20 °C 33.0 °F /  0.6 °C 29.9in /  1012.4hPa West 21mph /  33.8km/h 21mph /  33.8km/h 28% 0.000in /  0mm 23.00 W/m2
19:14 67.0 °F /  19.4 °C 35.0 °F /  1.7 °C 29.9in /  1012.4hPa WSW 7mph /  11.3km/h 21mph /  33.8km/h 30% 0.000in /  0mm 21.00 W/m2
19:19 67.0 °F /  19.4 °C 34.0 °F /  1.1 °C 29.9in /  1012.4hPa SSW 6mph /  9.7km/h 7mph /  11.3km/h 30% 0.000in /  0mm 14.00 W/m2
19:24 66.0 °F /  18.9 °C 34.0 °F /  1.1 °C 29.9in /  1012.4hPa West 7mph /  11.3km/h 7mph /  11.3km/h 30% 0.000in /  0mm 12.00 W/m2
19:29 66.0 °F /  18.9 °C 35.0 °F /  1.7 °C 29.9in /  1012.4hPa SW 11mph /  17.7km/h 7mph /  11.3km/h 32% 0.000in /  0mm 12.00 W/m2
19:34 65.0 °F /  18.3 °C 35.0 °F /  1.7 °C 29.9in /  1012.4hPa SW 7mph /  11.3km/h 10mph /  16.1km/h 32% 0.000in /  0mm 11.00 W/m2
19:39 65.0 °F /  18.3 °C 35.0 °F /  1.7 °C 29.9in /  1012.4hPa SSW 7mph /  11.3km/h 7mph /  11.3km/h 33% 0.000in /  0mm 9.00 W/m2
19:44 65.0 °F /  18.3 °C 35.0 °F /  1.7 °C 29.9in /  1012.4hPa SW 11mph /  17.7km/h 7mph /  11.3km/h 33% 0.000in /  0mm 9.00 W/m2
19:49 64.0 °F /  17.8 °C 35.0 °F /  1.7 °C 29.9in /  1012.4hPa West 18mph /  29km/h 10mph /  16.1km/h 33% 0.000in /  0mm 11.00 W/m2
19:54 64.0 °F /  17.8 °C 35.0 °F /  1.7 °C 29.9in /  1012.4hPa SE 4mph /  6.4km/h 17mph /  27.4km/h 34% 0.000in /  0mm 11.00 W/m2
19:59 64.0 °F /  17.8 °C 35.0 °F /  1.7 °C 29.9in /  1012.4hPa SE 11mph /  17.7km/h 4mph /  6.4km/h 34% 0.000in /  0mm 11.00 W/m2
20:04 64.0 °F /  17.8 °C 34.0 °F /  1.1 °C 29.9in /  1012.4hPa SSE 7mph /  11.3km/h 10mph /  16.1km/h 33% 0.000in /  0mm 11.00 W/m2
20:09 63.0 °F /  17.2 °C 34.0 °F /  1.1 °C 29.9in /  1012.4hPa SSE 11mph /  17.7km/h 7mph /  11.3km/h 33% 0.000in /  0mm 9.00 W/m2
20:14 63.0 °F /  17.2 °C 34.0 °F /  1.1 °C 29.9in /  1012.4hPa ESE 10mph /  16.1km/h 10mph /  16.1km/h 33% 0.000in /  0mm 9.00 W/m2
20:19 63.0 °F /  17.2 °C 34.0 °F /  1.1 °C 29.9in /  1012.4hPa NE 11mph /  17.7km/h 9mph /  14.5km/h 34% 0.000in /  0mm 7.00 W/m2
20:24 63.0 °F /  17.2 °C 34.0 °F /  1.1 °C 29.9in /  1012.4hPa East 6mph /  9.7km/h 10mph /  16.1km/h 35% 0.000in /  0mm 7.00 W/m2
20:29 62.0 °F /  16.7 °C 35.0 °F /  1.7 °C 29.9in /  1012.4hPa SE 7mph /  11.3km/h 6mph /  9.7km/h 36% 0.000in /  0mm 5.00 W/m2
20:34 62.0 °F /  16.7 °C 35.0 °F /  1.7 °C 29.9in /  1012.4hPa South 4mph /  6.4km/h 7mph /  11.3km/h 36% 0.000in /  0mm 0.00 W/m2
20:39 62.0 °F /  16.7 °C 35.0 °F /  1.7 °C 29.9in /  1012.4hPa SSW 2mph /  3.2km/h 3mph /  4.8km/h 36% 0.000in /  0mm 0.00 W/m2
20:44 62.0 °F /  16.7 °C 36.0 °F /  2.2 °C 29.9in /  1012.4hPa ESE 2mph /  3.2km/h 2mph /  3.2km/h 38% 0.000in /  0mm 0.00 W/m2
20:49 62.0 °F /  16.7 °C 34.0 °F /  1.1 °C 29.9in /  1012.4hPa Calm   2mph /  3.2km/h 36% 0.000in /  0mm 0.00 W/m2
20:54 61.0 °F /  16.1 °C 36.0 °F /  2.2 °C 29.9in /  1012.4hPa Calm     39% 0.000in /  0mm 0.00 W/m2
20:59 61.0 °F /  16.1 °C 35.0 °F /  1.7 °C 29.9in /  1012.4hPa SSE 2mph /  3.2km/h   38% 0.000in /  0mm 0.00 W/m2
21:04 61.0 °F /  16.1 °C 35.0 °F /  1.7 °C 29.9in /  1012.4hPa Calm   2mph /  3.2km/h 38% 0.000in /  0mm 0.00 W/m2
21:09 61.0 °F /  16.1 °C 34.0 °F /  1.1 °C 29.9in /  1012.4hPa SW 5mph /  8km/h 2mph /  3.2km/h 37% 0.000in /  0mm 0.00 W/m2
21:14 61.0 °F /  16.1 °C 35.0 °F /  1.7 °C 29.9in /  1012.4hPa South 6mph /  9.7km/h 6mph /  9.7km/h 39% 0.000in /  0mm 0.00 W/m2
21:18 60.0 °F /  15.6 °C 35.0 °F /  1.7 °C 29.9in /  1012.4hPa Calm   2mph /  3.2km/h 39% 0.000in /  0mm 0.00 W/m2
El Dorado Weather
Compliments of Weather Underground - 2 mb